AFL1334 UUEE-ULAA

Flight info

Callsign AFL1334
Flight time 1h 35m
Altitude 35000
Route N0450F350 RILPO T753 DEGOP/N448F340 T747 TIPNA P988 GITOT P988 RUPAD T825 ABELU
Aircraft A321/M-VGDW/C

Departure

Time 2026-04-22 15:23
Airport Sheremetyevo International Airport (UUEE)

Arrival

Time 2026-04-22 16:58
Airport Talagi Airport (ULAA)
Time Latitude Longitude Altitude Speed Heading
2026-04-22 14:51 55.97961 37.41614 639 ft 0 kts 76°
2026-04-22 15:14 55.97956 37.41579 640 ft 4 kts 84°
2026-04-22 15:14 55.97957 37.41532 639 ft 4 kts 104°
2026-04-22 15:14 55.97967 37.41490 643 ft 4 kts 135°
2026-04-22 15:15 55.97985 37.41469 640 ft 1 kts 165°
2026-04-22 15:15 55.97986 37.41468 640 ft 0 kts 165°
2026-04-22 15:17 55.97927 37.41496 643 ft 17 kts 165°
2026-04-22 15:17 55.97804 37.41554 641 ft 18 kts 165°
2026-04-22 15:17 55.97687 37.41592 641 ft 16 kts 182°
2026-04-22 15:18 55.97613 37.41674 641 ft 12 kts 95°
2026-04-22 15:18 55.97634 37.41848 647 ft 18 kts 75°
2026-04-22 15:18 55.97672 37.42097 639 ft 21 kts 75°
2026-04-22 15:18 55.97708 37.42341 645 ft 20 kts 75°
2026-04-22 15:19 55.97743 37.42569 639 ft 18 kts 75°
2026-04-22 15:19 55.97774 37.42783 644 ft 17 kts 75°
2026-04-22 15:19 55.97803 37.42976 639 ft 16 kts 75°
2026-04-22 15:19 55.97830 37.43155 641 ft 15 kts 75°
2026-04-22 15:20 55.97860 37.43361 641 ft 19 kts 76°
2026-04-22 15:20 55.97891 37.43589 639 ft 18 kts 76°
2026-04-22 15:20 55.97926 37.43797 643 ft 17 kts 72°
2026-04-22 15:20 55.97947 37.43927 643 ft 0 kts 76°
2026-04-22 15:21 55.97948 37.43935 641 ft 4 kts 76°
2026-04-22 15:21 55.97922 37.44033 639 ft 9 kts 166°
2026-04-22 15:21 55.97844 37.44075 642 ft 16 kts 168°
2026-04-22 15:21 55.97773 37.43958 640 ft 17 kts 249°
2026-04-22 15:22 55.97692 37.43423 641 ft 77 kts 255°
2026-04-22 15:22 55.97502 37.42156 647 ft 131 kts 255°
2026-04-22 15:22 55.97231 37.40324 643 ft 171 kts 255°
2026-04-22 15:22 55.96904 37.38137 826 ft 195 kts 255°
2026-04-22 15:23 55.96536 37.35788 1504 ft 195 kts 255°
2026-04-22 15:23 55.96163 37.33452 2097 ft 202 kts 255°
2026-04-22 15:23 55.95756 37.30895 2347 ft 227 kts 255°
2026-04-22 15:23 55.95308 37.28075 2886 ft 242 kts 255°
2026-04-22 15:24 55.94847 37.25168 3690 ft 245 kts 255°
2026-04-22 15:24 55.94386 37.22260 4554 ft 248 kts 256°
2026-04-22 15:24 55.93914 37.19271 5382 ft 252 kts 256°
2026-04-22 15:24 55.93435 37.16236 6165 ft 256 kts 256°
2026-04-22 15:25 55.92948 37.13151 6895 ft 261 kts 257°
2026-04-22 15:25 55.92452 37.10015 7617 ft 265 kts 257°
2026-04-22 15:25 55.91949 37.06829 8369 ft 269 kts 257°
2026-04-22 15:25 55.91711 37.03544 9081 ft 269 kts 277°
2026-04-22 15:26 55.92193 37.00334 9548 ft 270 kts 298°
2026-04-22 15:26 55.93349 36.97737 9628 ft 269 kts 321°
2026-04-22 15:26 55.94879 36.95824 9631 ft 269 kts 325°
2026-04-22 15:26 55.96423 36.93939 9631 ft 269 kts 326°
2026-04-22 15:27 55.98117 36.92557 9628 ft 271 kts 344°
2026-04-22 15:27 55.99999 36.92281 9636 ft 275 kts
2026-04-22 15:27 56.01865 36.93258 10191 ft 284 kts 24°
2026-04-22 15:27 56.03565 36.95119 10928 ft 288 kts 29°
2026-04-22 15:28 56.05252 36.97078 11628 ft 290 kts 29°
2026-04-22 15:28 56.06953 36.99061 12332 ft 293 kts 29°
2026-04-22 15:28 56.08670 37.01065 13024 ft 296 kts 29°
2026-04-22 15:28 56.10345 37.03283 13514 ft 304 kts 39°
2026-04-22 15:29 56.11706 37.06215 13614 ft 311 kts 54°
2026-04-22 15:29 56.12616 37.09816 13764 ft 333 kts 71°
2026-04-22 15:29 56.13179 37.13906 14220 ft 341 kts 73°
2026-04-22 15:30 56.14344 37.22232 14626 ft 345 kts 72°
2026-04-22 15:30 56.14939 37.26392 14633 ft 344 kts 72°
2026-04-22 15:30 56.15543 37.30551 14631 ft 344 kts 70°
2026-04-22 15:30 56.16413 37.34511 14633 ft 340 kts 59°
2026-04-22 15:31 56.17672 37.38095 15135 ft 340 kts 51°
2026-04-22 15:31 56.19028 37.41595 15539 ft 343 kts 52°
2026-04-22 15:31 56.20371 37.45135 15620 ft 343 kts 52°
2026-04-22 15:31 56.21704 37.48682 15623 ft 342 kts 52°
2026-04-22 15:32 56.23035 37.52219 15619 ft 342 kts 52°
2026-04-22 15:32 56.24380 37.55778 15942 ft 345 kts 52°
2026-04-22 15:32 56.25740 37.59353 16461 ft 348 kts 52°
2026-04-22 15:32 56.27108 37.62948 16598 ft 348 kts 52°
2026-04-22 15:33 56.28473 37.66534 16603 ft 347 kts 52°
2026-04-22 15:33 56.29838 37.70118 16598 ft 347 kts 51°
2026-04-22 15:33 56.31335 37.73516 16774 ft 348 kts 46°
2026-04-22 15:33 56.32894 37.76859 17396 ft 350 kts 46°
2026-04-22 15:34 56.34460 37.80229 17576 ft 351 kts 46°
2026-04-22 15:34 56.36006 37.83561 17594 ft 350 kts 46°
2026-04-22 15:34 56.37710 37.86660 17598 ft 346 kts 35°
2026-04-22 15:34 56.39701 37.89023 17599 ft 341 kts 23°
2026-04-22 15:35 56.41931 37.90588 17661 ft 350 kts 11°
2026-04-22 15:35 56.44370 37.91313 17815 ft 361 kts
2026-04-22 15:35 56.46913 37.91639 18024 ft 371 kts
2026-04-22 15:35 56.49503 37.91980 18384 ft 375 kts
2026-04-22 15:36 56.52110 37.92335 18786 ft 377 kts
2026-04-22 15:36 56.54735 37.92699 19202 ft 379 kts
2026-04-22 15:36 56.57377 37.93066 19617 ft 381 kts
2026-04-22 15:36 56.60031 37.93435 20005 ft 384 kts
2026-04-22 15:37 56.62698 37.93805 20398 ft 386 kts
2026-04-22 15:37 56.65377 37.94307 20798 ft 390 kts
2026-04-22 15:37 56.68008 37.95644 21193 ft 397 kts 18°
2026-04-22 15:37 56.70500 37.97903 21592 ft 404 kts 28°
2026-04-22 15:38 56.72746 38.01029 21986 ft 411 kts 40°
2026-04-22 15:38 56.76862 38.08397 22780 ft 417 kts 41°
2026-04-22 15:38 56.78910 38.12070 23167 ft 420 kts 41°
2026-04-22 15:39 56.80995 38.15809 23500 ft 422 kts 41°
2026-04-22 15:39 56.83095 38.19581 23836 ft 424 kts 41°
2026-04-22 15:39 56.85202 38.23375 24167 ft 426 kts 41°
2026-04-22 15:39 56.87321 38.27195 24495 ft 428 kts 40°
2026-04-22 15:40 56.89501 38.30907 24821 ft 429 kts 38°
2026-04-22 15:40 56.91759 38.34493 25138 ft 430 kts 36°
2026-04-22 15:40 56.94064 38.38011 25458 ft 432 kts 35°
2026-04-22 15:40 56.96389 38.41521 25782 ft 434 kts 35°
2026-04-22 15:41 56.98719 38.45065 26096 ft 437 kts 36°
2026-04-22 15:41 57.01048 38.48664 26416 ft 439 kts 36°
2026-04-22 15:41 57.03377 38.52311 26724 ft 441 kts 36°
2026-04-22 15:41 57.05709 38.55998 27034 ft 443 kts 36°
2026-04-22 15:42 57.08047 38.59711 27331 ft 446 kts 36°
2026-04-22 15:42 57.10397 38.63447 27622 ft 448 kts 36°
2026-04-22 15:42 57.12763 38.67205 27911 ft 450 kts 36°
2026-04-22 15:42 57.15137 38.70979 28188 ft 452 kts 36°
2026-04-22 15:43 57.17516 38.74771 28432 ft 454 kts 36°
2026-04-22 15:43 57.19908 38.78590 28680 ft 456 kts 36°
2026-04-22 15:43 57.22306 38.82429 28915 ft 458 kts 36°
2026-04-22 15:43 57.24715 38.86289 29128 ft 459 kts 36°
2026-04-22 15:44 57.27127 38.90159 29402 ft 459 kts 36°
2026-04-22 15:44 57.29540 38.94034 29696 ft 459 kts 36°
2026-04-22 15:44 57.31948 38.97905 29943 ft 459 kts 37°
2026-04-22 15:44 57.34355 39.01780 30193 ft 459 kts 37°
2026-04-22 15:45 57.36762 39.05664 30428 ft 459 kts 37°
2026-04-22 15:45 57.39164 39.09551 30669 ft 459 kts 37°
2026-04-22 15:45 57.41532 39.13394 30912 ft 459 kts 37°
2026-04-22 15:45 57.43933 39.17300 31157 ft 459 kts 37°
2026-04-22 15:46 57.46324 39.21207 31397 ft 459 kts 37°
2026-04-22 15:46 57.48723 39.25125 31639 ft 459 kts 38°
2026-04-22 15:46 57.51123 39.29034 31859 ft 458 kts 37°
2026-04-22 15:46 57.53526 39.32932 32111 ft 458 kts 38°
2026-04-22 15:47 57.55927 39.36832 32340 ft 459 kts 38°
2026-04-22 15:47 57.58331 39.40746 32573 ft 459 kts 38°
2026-04-22 15:47 57.60727 39.44669 32802 ft 459 kts 38°
2026-04-22 15:47 57.63121 39.48601 33036 ft 458 kts 38°
2026-04-22 15:48 57.65512 39.52540 33254 ft 459 kts 38°
2026-04-22 15:48 57.67900 39.56485 33475 ft 458 kts 39°
2026-04-22 15:48 57.70290 39.60441 33652 ft 459 kts 39°
2026-04-22 15:48 57.72679 39.64390 33822 ft 459 kts 39°
2026-04-22 15:49 57.75071 39.68340 33992 ft 459 kts 39°
2026-04-22 15:49 57.77461 39.72292 34161 ft 459 kts 39°
2026-04-22 15:49 57.79850 39.76264 34326 ft 459 kts 39°
2026-04-22 15:49 57.82296 39.80088 34482 ft 457 kts 32°
2026-04-22 15:50 57.87910 39.85092 34058 ft 442 kts 11°
2026-04-22 15:50 57.90874 39.86006 33654 ft 434 kts
2026-04-22 15:50 57.93880 39.85914 33472 ft 433 kts 351°
2026-04-22 15:51 57.99800 39.83859 33491 ft 434 kts 346°
2026-04-22 15:51 58.05733 39.81694 33490 ft 435 kts 347°
2026-04-22 15:52 58.09593 39.80285 33488 ft 435 kts 346°
2026-04-22 15:52 58.15534 39.78083 33485 ft 435 kts 346°
2026-04-22 15:53 58.21471 39.75852 33477 ft 435 kts 346°
2026-04-22 15:53 58.27410 39.73602 33473 ft 435 kts 346°
2026-04-22 15:54 58.33348 39.71359 33469 ft 435 kts 346°
2026-04-22 15:54 58.39247 39.69124 33463 ft 435 kts 346°
2026-04-22 15:55 58.45180 39.66857 33461 ft 435 kts 346°
2026-04-22 15:55 58.51120 39.64581 33452 ft 435 kts 346°
2026-04-22 15:56 58.57056 39.62297 33445 ft 436 kts 346°
2026-04-22 15:56 58.63002 39.59991 33441 ft 436 kts 346°
2026-04-22 15:57 58.68949 39.57689 33434 ft 436 kts 346°
2026-04-22 15:57 58.74924 39.55738 33430 ft 439 kts 352°
2026-04-22 15:58 58.81021 39.54712 33429 ft 439 kts 352°
2026-04-22 15:58 58.87108 39.53670 33425 ft 439 kts 352°
2026-04-22 15:59 58.93200 39.52666 33420 ft 440 kts 352°
2026-04-22 15:59 58.99258 39.51674 33418 ft 440 kts 352°
2026-04-22 16:00 59.05358 39.50664 33408 ft 440 kts 352°
2026-04-22 16:00 59.11461 39.49644 33414 ft 440 kts 352°
2026-04-22 16:01 59.17561 39.48614 33408 ft 440 kts 352°
2026-04-22 16:01 59.23670 39.47592 33401 ft 440 kts 352°
2026-04-22 16:02 59.29776 39.46592 33400 ft 441 kts 352°
2026-04-22 16:02 59.35887 39.45574 33399 ft 441 kts 352°
2026-04-22 16:03 59.41993 39.44524 33389 ft 441 kts 352°
2026-04-22 16:03 59.48103 39.43485 33395 ft 441 kts 352°
2026-04-22 16:04 59.54213 39.42451 33389 ft 441 kts 352°
2026-04-22 16:04 59.60325 39.41425 33397 ft 441 kts 352°
2026-04-22 16:05 59.66389 39.40388 33384 ft 441 kts 352°
2026-04-22 16:05 59.72497 39.39318 33384 ft 441 kts 352°
2026-04-22 16:06 59.78605 39.38261 33379 ft 441 kts 352°
2026-04-22 16:06 59.84706 39.37080 33382 ft 440 kts 351°
2026-04-22 16:07 59.90780 39.35607 33377 ft 440 kts 351°
2026-04-22 16:07 59.96853 39.34078 33376 ft 440 kts 351°
2026-04-22 16:08 60.02926 39.32610 33372 ft 440 kts 351°
2026-04-22 16:08 60.07974 39.31420 33371 ft 439 kts 351°
2026-04-22 16:09 60.14048 39.29976 33374 ft 439 kts 351°
2026-04-22 16:09 60.20114 39.28503 33369 ft 439 kts 351°
2026-04-22 16:10 60.26169 39.26926 33369 ft 439 kts 350°
2026-04-22 16:10 60.32213 39.25265 33367 ft 438 kts 350°
2026-04-22 16:11 60.38256 39.23604 33366 ft 438 kts 351°
2026-04-22 16:11 60.44297 39.21963 33372 ft 438 kts 351°
2026-04-22 16:12 60.50334 39.20320 33363 ft 438 kts 351°
2026-04-22 16:12 60.56370 39.18681 33367 ft 437 kts 351°
2026-04-22 16:13 60.62398 39.17023 33357 ft 437 kts 351°
2026-04-22 16:13 60.68422 39.15360 33361 ft 437 kts 351°
2026-04-22 16:14 60.74442 39.13703 33356 ft 436 kts 351°
2026-04-22 16:14 60.80459 39.12043 33366 ft 436 kts 351°
2026-04-22 16:15 60.86436 39.10372 33355 ft 436 kts 351°
2026-04-22 16:15 60.92445 39.08679 33362 ft 436 kts 351°
2026-04-22 16:16 60.98453 39.06995 33357 ft 436 kts 351°
2026-04-22 16:16 61.04460 39.05305 33359 ft 436 kts 351°
2026-04-22 16:17 61.10467 39.03612 33354 ft 435 kts 351°
2026-04-22 16:17 61.16470 39.01912 33361 ft 435 kts 351°
2026-04-22 16:18 61.22465 39.00201 33353 ft 435 kts 351°
2026-04-22 16:18 61.28469 38.98804 33360 ft 435 kts 359°
2026-04-22 16:19 61.34470 39.00431 33348 ft 436 kts
2026-04-22 16:19 61.40427 39.02810 33351 ft 436 kts
2026-04-22 16:20 61.46340 39.05168 33339 ft 435 kts
2026-04-22 16:20 61.52291 39.07542 33344 ft 435 kts
2026-04-22 16:21 61.58242 39.09925 33340 ft 435 kts
2026-04-22 16:21 61.64187 39.12337 33349 ft 435 kts
2026-04-22 16:22 61.73099 39.15971 33344 ft 434 kts
2026-04-22 16:23 61.81995 39.19599 33341 ft 434 kts
2026-04-22 16:23 61.87914 39.22023 33347 ft 433 kts
2026-04-22 16:24 61.96723 39.25865 33340 ft 432 kts 11°
2026-04-22 16:25 62.02594 39.28608 33340 ft 432 kts 11°
2026-04-22 16:25 62.11398 39.32666 33341 ft 431 kts 11°
2026-04-22 16:26 62.17265 39.35352 33333 ft 431 kts 11°
2026-04-22 16:26 62.23125 39.38026 33348 ft 431 kts 11°
2026-04-22 16:27 62.28983 39.40709 33338 ft 430 kts 11°
2026-04-22 16:27 62.34821 39.43422 33345 ft 429 kts 11°
2026-04-22 16:28 62.40653 39.46150 33333 ft 429 kts 11°
2026-04-22 16:28 62.46476 39.48874 33343 ft 428 kts 11°
2026-04-22 16:29 62.52296 39.51594 33338 ft 428 kts 11°
2026-04-22 16:29 62.58106 39.54319 33347 ft 427 kts 11°
2026-04-22 16:30 62.63907 39.57065 33334 ft 426 kts 12°
2026-04-22 16:30 62.69699 39.59817 33346 ft 425 kts 12°
2026-04-22 16:31 62.75435 39.62537 33339 ft 425 kts 12°
2026-04-22 16:31 62.81199 39.65288 33359 ft 424 kts 12°
2026-04-22 16:32 62.86955 39.68069 33345 ft 423 kts 12°
2026-04-22 16:32 62.92703 39.70857 33350 ft 423 kts 12°
2026-04-22 16:33 62.98452 39.73620 33347 ft 423 kts 12°
2026-04-22 16:33 63.04182 39.76386 32612 ft 421 kts 12°
2026-04-22 16:34 63.07024 39.77772 32122 ft 415 kts 12°
2026-04-22 16:34 63.09825 39.79147 31564 ft 411 kts 12°
2026-04-22 16:34 63.12602 39.80517 31031 ft 407 kts 12°
2026-04-22 16:34 63.15355 39.81872 30488 ft 403 kts 12°
2026-04-22 16:35 63.18081 39.83210 29949 ft 400 kts 12°
2026-04-22 16:35 63.20785 39.84538 29397 ft 396 kts 12°
2026-04-22 16:35 63.23428 39.85840 28821 ft 392 kts 12°
2026-04-22 16:35 63.26063 39.87141 28316 ft 385 kts 12°
2026-04-22 16:36 63.28664 39.88425 27803 ft 380 kts 12°
2026-04-22 16:36 63.31223 39.89693 27282 ft 374 kts 12°
2026-04-22 16:36 63.33747 39.90947 26814 ft 370 kts 12°
2026-04-22 16:36 63.36250 39.92199 26327 ft 367 kts 12°
2026-04-22 16:37 63.38734 39.93446 25852 ft 365 kts 12°
2026-04-22 16:37 63.41206 39.94693 25363 ft 363 kts 12°
2026-04-22 16:37 63.43660 39.95927 24906 ft 360 kts 12°
2026-04-22 16:37 63.46059 39.97438 24444 ft 358 kts 18°
2026-04-22 16:38 63.48416 39.99221 23984 ft 357 kts 18°
2026-04-22 16:38 63.50762 40.00995 23528 ft 355 kts 18°
2026-04-22 16:38 63.53095 40.02763 23100 ft 353 kts 18°
2026-04-22 16:38 63.55416 40.04524 22632 ft 351 kts 17°
2026-04-22 16:39 63.57728 40.06276 22211 ft 350 kts 17°
2026-04-22 16:39 63.60030 40.08023 21783 ft 348 kts 17°
2026-04-22 16:39 63.62320 40.09767 21420 ft 346 kts 17°
2026-04-22 16:39 63.64595 40.11512 21029 ft 345 kts 18°
2026-04-22 16:40 63.66829 40.13232 20660 ft 343 kts 17°
2026-04-22 16:40 63.69084 40.14970 20270 ft 342 kts 17°
2026-04-22 16:40 63.73529 40.18583 19528 ft 339 kts 23°
2026-04-22 16:41 63.75613 40.21074 19145 ft 338 kts 27°
2026-04-22 16:41 63.77665 40.23655 18739 ft 337 kts 27°
2026-04-22 16:41 63.79708 40.26216 18359 ft 335 kts 27°
2026-04-22 16:41 63.81745 40.28763 17968 ft 333 kts 27°
2026-04-22 16:42 63.83766 40.31302 17555 ft 332 kts 27°
2026-04-22 16:42 63.85778 40.33846 17117 ft 330 kts 27°
2026-04-22 16:42 63.87776 40.36379 16724 ft 328 kts 27°
2026-04-22 16:42 63.89762 40.38894 16318 ft 326 kts 27°
2026-04-22 16:43 63.91738 40.41391 15923 ft 324 kts 27°
2026-04-22 16:43 63.93703 40.43875 15510 ft 322 kts 27°
2026-04-22 16:43 63.95654 40.46345 15123 ft 320 kts 27°
2026-04-22 16:43 63.97593 40.48807 14730 ft 318 kts 27°
2026-04-22 16:44 63.99515 40.51258 14334 ft 316 kts 27°
2026-04-22 16:44 64.01404 40.53669 13938 ft 314 kts 27°
2026-04-22 16:44 64.03309 40.56107 13550 ft 313 kts 27°
2026-04-22 16:44 64.05198 40.58532 13154 ft 311 kts 27°
2026-04-22 16:45 64.07076 40.60940 12723 ft 309 kts 27°
2026-04-22 16:45 64.08948 40.63342 12307 ft 307 kts 27°
2026-04-22 16:45 64.10804 40.65731 11927 ft 306 kts 27°
2026-04-22 16:45 64.12650 40.68112 11512 ft 304 kts 27°
2026-04-22 16:46 64.14486 40.70479 11103 ft 302 kts 27°
2026-04-22 16:46 64.16312 40.72834 10683 ft 300 kts 27°
2026-04-22 16:46 64.18129 40.75174 10279 ft 298 kts 27°
2026-04-22 16:46 64.19931 40.77496 9872 ft 296 kts 27°
2026-04-22 16:47 64.21688 40.79775 9696 ft 284 kts 27°
2026-04-22 16:47 64.23389 40.81991 9379 ft 278 kts 27°
2026-04-22 16:47 64.24497 40.83438 9258 ft 276 kts 27°
2026-04-22 16:47 64.26700 40.86314 9080 ft 275 kts 27°
2026-04-22 16:48 64.28387 40.88513 8944 ft 274 kts 27°
2026-04-22 16:48 64.30048 40.90686 8770 ft 275 kts 27°
2026-04-22 16:48 64.31686 40.92837 8319 ft 274 kts 27°
2026-04-22 16:48 64.33338 40.94999 7853 ft 273 kts 27°
2026-04-22 16:49 64.34988 40.97152 7368 ft 273 kts 27°
2026-04-22 16:49 64.36628 40.99304 6920 ft 271 kts 27°
2026-04-22 16:49 64.38261 41.01457 6569 ft 268 kts 27°
2026-04-22 16:49 64.39888 41.03606 6126 ft 268 kts 27°
2026-04-22 16:50 64.41494 41.05734 5760 ft 266 kts 27°
2026-04-22 16:50 64.43096 41.07853 5322 ft 265 kts 27°
2026-04-22 16:50 64.44688 41.09965 4903 ft 263 kts 27°
2026-04-22 16:50 64.46266 41.12063 4479 ft 261 kts 27°
2026-04-22 16:51 64.47891 41.13846 4027 ft 257 kts 15°
2026-04-22 16:51 64.49633 41.14598 3617 ft 251 kts
2026-04-22 16:51 64.51327 41.15041 3463 ft 239 kts
2026-04-22 16:51 64.52936 41.15494 3348 ft 227 kts
2026-04-22 16:52 64.54447 41.15926 3299 ft 209 kts
2026-04-22 16:52 64.55807 41.16296 3250 ft 183 kts
2026-04-22 16:52 64.56927 41.15732 3228 ft 151 kts 330°
2026-04-22 16:52 64.57654 41.14174 3183 ft 140 kts 305°
2026-04-22 16:53 64.57983 41.12065 3160 ft 140 kts 280°
2026-04-22 16:53 64.58095 41.09860 3049 ft 138 kts 281°
2026-04-22 16:53 64.58212 41.07629 2746 ft 140 kts 280°
2026-04-22 16:53 64.58327 41.05394 2444 ft 138 kts 280°
2026-04-22 16:54 64.58440 41.03195 2207 ft 136 kts 279°
2026-04-22 16:54 64.58553 41.01006 1999 ft 136 kts 279°
2026-04-22 16:54 64.58665 40.98817 1804 ft 136 kts 279°
2026-04-22 16:54 64.58777 40.96625 1612 ft 136 kts 279°
2026-04-22 16:55 64.58888 40.94436 1417 ft 136 kts 279°
2026-04-22 16:55 64.58999 40.92247 1220 ft 136 kts 278°
2026-04-22 16:55 64.59110 40.90053 1026 ft 136 kts 278°
2026-04-22 16:55 64.59220 40.87855 843 ft 137 kts 278°
2026-04-22 16:56 64.59331 40.85653 677 ft 137 kts 277°
2026-04-22 16:56 64.59442 40.83447 625 ft 138 kts 278°
2026-04-22 16:56 64.59554 40.81228 562 ft 138 kts 278°
2026-04-22 16:56 64.59669 40.79002 464 ft 139 kts 278°
2026-04-22 16:57 64.59777 40.76776 305 ft 139 kts 276°
2026-04-22 16:57 64.59883 40.74548 116 ft 137 kts 278°
2026-04-22 16:57 64.59991 40.72364 43 ft 130 kts 279°
2026-04-22 16:57 64.60082 40.70731 38 ft 61 kts 275°
2026-04-22 16:58 64.60095 40.70410 35 ft 7 kts 278°
2026-04-22 16:58 64.60096 40.70287 36 ft 4 kts 260°
2026-04-22 16:58 64.60081 40.70242 35 ft 3 kts 215°
2026-04-22 16:58 64.60064 40.70222 36 ft 1 kts 201°
2026-04-22 16:59 64.60063 40.70222 36 ft 0 kts 201°
2026-04-22 16:59 64.60062 40.70222 36 ft 1 kts 193°
2026-04-22 16:59 64.60059 40.70221 37 ft 0 kts 191°
2026-04-22 16:59 64.60052 40.70217 37 ft 4 kts 193°
2026-04-22 17:00 64.60002 40.70199 38 ft 11 kts 187°
2026-04-22 17:00 64.59867 40.70163 38 ft 9 kts 186°
2026-04-22 17:00 64.59811 40.70166 40 ft 7 kts 159°
2026-04-22 17:01 64.59777 40.70218 40 ft 0 kts 141°
2026-04-22 17:01 64.59777 40.70220 40 ft 0 kts 135°
2026-04-22 17:02 64.59788 40.70228 39 ft 2 kts 347°
2026-04-22 17:02 64.59811 40.70182 40 ft 9 kts 320°
2026-04-22 17:02 64.59875 40.70171 40 ft 9 kts 30°
2026-04-22 17:02 64.59880 40.70250 40 ft 4 kts 91°
2026-04-22 17:03 64.59880 40.70324 40 ft 6 kts 91°
2026-04-22 17:03 64.59875 40.70449 40 ft 12 kts 96°
2026-04-22 17:03 64.59864 40.70681 40 ft 15 kts 96°
2026-04-22 17:03 64.59853 40.70915 38 ft 14 kts 96°
2026-04-22 17:04 64.59846 40.71065 40 ft 14 kts 96°
2026-04-22 17:04 64.59799 40.71276 40 ft 11 kts 179°
2026-04-22 17:04 64.59735 40.71302 40 ft 8 kts 130°
2026-04-22 17:04 64.59723 40.71385 40 ft 8 kts 100°
2026-04-22 17:05 64.59691 40.71480 40 ft 5 kts 168°
2026-04-22 17:05 64.59678 40.71481 40 ft 1 kts 180°
2026-04-22 17:05 64.59673 40.71480 40 ft 0 kts 182°
2026-04-22 17:05 64.59669 40.71480 40 ft 1 kts 183°
2026-04-22 17:06 64.59664 40.71479 40 ft 1 kts 184°
2026-04-22 17:06 64.59662 40.71479 40 ft 0 kts 184°